RH
84 95 93 92 92 91 91 90 90 90 91 90 91 91 91 91 91 91 92 91 89 85 81 82 82 82 81 81 87 89 89 90 90 88 86 83 78 78 80 85 86 83 88
76 94 93 92 91 90 90 90 90 90 92 92 92 92 93 93 93 93 92 91 88 83 80 82 80 79 81 83 89 90 89 91 91 88 86 82 80 81 82 87 89 88 88
87 92 91 92 91 90 90 89 89 90 91 92 93 93 93 93 93 93 92 91 88 83 81 82 80 78 80 88 91 91 90 91 90 89 86 86 84 81 84 89 90 87 86
85 93 91 92 91 91 90 89 89 89 91 92 93 93 92 92 93 93 93 92 88 84 80 80 83 83 86 90 91 91 90 89 89 84 78 77 74 81 83 84 85 84 84
86 88 90 92 91 91 90 90 89 90 93 94 94 92 91 91 91 92 92 92 88 85 80 80 84 86 90 90 90 90 88 86 84 80 78 86 88 79 81 83 85 86 89
88 90 91 93 92 91 91 90 90 92 94 94 95 93 91 90 90 91 92 91 88 85 82 83 85 89 88 88 86 84 84 82 79 80 80 81 87 82 82 85 90 91 91
92 93 86 94 92 91 90 90 91 92 94 94 95 95 93 91 91 92 92 92 90 88 89 89 90 88 87 85 84 83 83 83 73 71 72 87 94 85 83 82 90 91 91
94 87 86 94 92 91 91 91 93 94 94 95 96 95 95 94 92 92 93 92 93 94 94 92 89 88 87 85 83 84 85 84 69 68 75 88 92 83 79 82 89 90 90
93 87 84 90 93 94 94 94 94 94 94 95 96 96 96 94 93 93 93 93 94 94 92 91 89 88 86 84 83 84 85 84 72 69 65 87 88 82 76 81 85 88 88
97 90 84 83 93 96 96 95 94 95 95 96 96 97 97 94 93 93 94 94 94 94 91 90 89 88 86 84 84 84 85 78 63 63 72 82 88 80 77 81 85 88 88
96 89 83 82 82 85 93 94 94 94 95 96 96 97 97 97 96 94 96 96 95 94 92 91 90 89 87 84 82 82 84 72 62 80 84 90 88 81 79 86 88 88 88
95 96 87 83 83 82 81 90 96 92 94 95 97 97 98 98 98 93 95 96 95 95 92 91 90 90 88 94 92 86 86 69 63 74 87 91 90 84 84 91 91 89 88
81 92 97 89 85 86 89 84 92 94 98 99 98 98 98 96 98 98 99 98 99 96 98 96 95 96 94 93 86 83 77 72 66 77 81 89 87 81 79 88 91 93 93
80 80 94 97 98 97 92 87 92 96 98 99 98 98 98 99 98 98 98 99 99 99 98 98 98 96 93 86 79 73 72 68 66 67 83 88 84 82 77 76 82 89 93
71 74 85 90 94 90 98 97 96 93 94 92 97 96 95 97 96 97 98 99 99 99 98 98 97 94 90 83 76 69 66 64 63 70 83 85 84 83 83 79 82 86 90
64 70 77 80 82 83 90 90 88 86 88 91 90 92 92 88 90 91 96 97 98 96 97 95 92 91 87 81 74 71 67 69 65 69 73 84 87 85 84 84 84 82 83
61 64 70 73 73 76 80 80 80 80 83 84 85 91 85 87 88 84 90 92 89 88 90 92 88 88 85 77 76 73 73 70 74 69 69 79 86 88 87 86 85 85 81
58 65 64 59 67 68 75 70 68 73 79 76 79 85 84 78 83 81 83 85 85 85 82 80 86 87 85 84 82 81 76 75 75 84 73 80 76 74 88 90 88 85 81
58 64 68 62 65 65 77 70 67 71 72 70 74 77 81 76 78 80 76 83 84 81 81 77 87 82 89 89 84 87 87 86 83 74 82 78 77 81 78 90 89 87 81
52 60 63 69 63 61 65 73 69 71 72 69 71 72 76 75 75 77 78 84 82 78 81 79 78 85 86 81 69 74 93 88 92 85 80 78 87 89 87 87 85 88 84
47 60 62 67 70 63 63 80 77 73 75 72 70 72 74 73 73 77 75 79 78 79 74 76 75 83 88 90 93 93 94 94 96 97 95 92 93 91 89 86 88 81 80
43 55 61 62 68 70 69 60 72 68 69 71 72 74 73 73 74 70 74 76 71 73 86 84 77 94 78 94 92 96 95 93 98 95 97 91 94 96 90 87 83 73 76
36 50 59 60 65 68 72 73 71 86 82 85 78 76 80 76 73 73 72 76 74 78 76 80 80 76 78 96 92 92 97 97 96 97 96 96 96 98 94 83 77 67 71
36 41 55 58 63 65 64 70 70 76 77 68 68 72 79 84 79 74 72 74 80 77 77 76 76 76 77 85 97 84 91 93 96 94 91 97 96 89 87 80 69 65 71
37 50 54 58 64 65 66 68 66 70 67 66 67 70 76 83 82 80 77 77 78 81 77 78 79 82 77 73 82 96 96 95 90 92 95 91 82 79 76 68 64 69 81
62 60 55 58 64 71 74 77 73 71 70 69 72 80 75 81 84 84 81 80 78 78 80 82 82 84 78 77 76 79 81 83 86 95 93 90 89 81 82 73 69 69 82
Wind_Speed
11 13 18 19 19 19 18 17 17 16 17 17 17 18 18 18 18 17 17 18 18 17 17 16 16 16 16 17 18 17 17 16 15 16 15 13 16 16 16 13 13 11 14
16 15 19 20 20 20 19 18 17 16 17 16 15 17 17 17 17 17 16 15 16 16 17 16 16 16 15 16 14 15 15 15 15 15 15 16 15 16 15 13 12 10 12
18 15 16 20 20 20 20 19 19 18 17 16 15 15 16 17 16 16 15 15 15 15 15 15 16 16 15 14 12 12 11 12 13 13 13 7 9 15 15 13 12 10 12
18 14 16 20 21 21 20 20 19 19 18 16 15 15 15 15 15 15 14 13 14 14 15 14 14 14 14 13 12 11 10 10 9 9 4 4 10 14 14 13 12 11 12
17 14 16 21 21 21 20 20 19 19 19 17 15 15 15 15 15 14 12 12 13 13 15 15 13 13 12 12 11 10 9 7 5 5 5 4 6 11 13 12 12 11 9
16 13 19 21 22 21 20 19 19 19 18 17 16 15 14 14 15 14 12 12 13 12 13 13 12 12 11 11 10 9 7 4 3 0 4 5 6 14 13 12 11 10 9
15 12 19 19 22 22 21 20 19 18 18 18 17 15 13 13 13 13 13 12 13 12 12 11 8 9 10 9 9 8 5 4 3 1 8 5 3 14 15 12 10 9 8
17 14 16 17 21 21 20 20 18 17 17 17 16 16 15 12 11 11 11 12 12 12 11 10 9 8 8 7 7 6 5 6 4 1 6 5 8 13 14 13 10 9 8
14 15 15 13 15 18 18 18 17 17 17 15 15 14 15 14 12 10 10 10 11 12 11 10 9 8 7 5 3 3 4 4 2 2 7 4 12 12 13 12 11 9 8
12 13 15 15 11 11 11 17 17 17 16 16 15 13 12 13 13 12 10 10 10 11 11 11 10 8 6 4 2 1 4 3 3 1 4 4 9 12 13 12 11 10 9
9 13 14 15 15 12 10 11 15 17 17 16 14 14 11 6 8 10 9 11 11 10 10 10 10 8 6 4 5 5 3 1 3 2 3 7 10 13 13 12 11 10 9
14 14 14 15 15 14 11 12 9 10 8 8 9 10 6 6 5 7 8 11 10 10 10 10 10 8 6 2 3 6 0 3 2 3 3 11 11 13 13 11 10 10 9
12 11 12 14 14 14 10 10 6 6 6 6 9 8 6 6 5 4 3 4 4 7 3 5 5 3 5 3 3 4 4 1 3 3 5 10 10 11 11 11 10 9 8
13 10 11 11 11 9 8 9 9 7 7 7 8 9 7 5 6 5 4 4 5 4 5 5 3 4 5 5 5 5 5 4 3 2 4 7 8 9 10 10 9 8 9
15 13 12 11 11 7 10 7 8 8 8 8 8 9 8 6 6 5 5 5 4 4 4 4 4 4 5 5 5 6 6 6 4 3 3 10 9 9 9 8 8 7 6
16 17 15 13 11 9 9 9 8 8 8 7 7 9 9 7 6 6 5 6 5 5 4 5 5 5 5 5 6 6 7 5 6 5 4 5 10 9 9 8 8 9 9
18 19 19 17 14 12 11 10 8 8 8 8 8 8 10 7 8 9 6 6 6 6 6 5 5 3 4 4 6 5 5 7 5 6 5 4 5 9 8 9 9 8 8
18 20 21 17 19 16 13 10 9 8 8 8 8 7 11 10 10 8 8 7 7 6 6 7 5 4 5 4 4 5 5 5 6 6 5 5 5 5 7 11 12 11 9
21 20 19 19 21 21 14 11 10 10 9 9 8 8 11 12 12 9 8 7 7 6 6 7 5 5 4 4 5 5 5 5 6 5 7 8 10 8 6 11 12 12 12
20 21 22 18 20 20 14 11 8 8 9 9 10 10 13 11 13 11 8 7 8 7 7 6 6 6 4 6 6 6 5 5 5 6 8 7 7 7 7 7 6 5 9
20 20 21 20 20 15 13 13 11 13 10 10 10 13 14 13 14 13 10 10 10 10 11 10 7 7 7 5 3 2 3 4 5 5 5 6 7 8 8 7 5 4 5
20 22 22 23 20 18 14 14 10 13 11 10 9 11 14 15 14 13 13 11 13 9 8 11 11 4 7 6 5 2 3 4 5 6 5 7 8 5 6 7 7 6 5
14 22 22 24 23 22 21 10 7 4 3 7 10 11 12 15 15 15 15 12 11 11 10 10 10 13 9 5 5 6 2 6 0 2 9 7 6 5 6 8 8 7 7
11 19 23 24 24 22 22 18 20 15 15 13 12 9 9 14 16 16 16 14 13 10 13 12 10 10 8 9 1 7 2 4 4 3 2 3 4 6 7 6 7 7 8
7 14 20 23 24 24 23 21 20 18 14 10 10 14 13 12 16 16 16 14 14 11 13 13 11 12 11 9 8 3 4 2 2 3 4 3 1 2 3 6 8 6 8
4 8 18 21 19 19 20 19 21 21 16 11 11 9 10 8 9 14 16 16 15 14 14 12 12 13 13 12 9 11 10 9 9 4 2 2 2 2 2 3 6 7 7
Wind_Direction
174 170 161 144 138 130 125 120 116 113 110 109 108 108 109 111 112 110 107 107 110 109 108 107 106 106 106 109 104 102 103 103 100 93 90 101 105 103 101 96 88 90 91
144 163 159 147 142 135 131 129 124 121 116 111 110 110 107 105 106 106 105 107 108 110 112 112 113 112 113 107 103 108 110 108 101 94 88 91 103 97 92 84 85 86 86
147 159 158 148 144 139 137 136 132 128 123 120 115 111 111 111 109 106 107 109 110 111 112 115 114 113 108 97 93 94 96 96 88 87 92 88 90 100 101 94 86 84 89
145 161 154 152 146 143 142 140 138 133 130 127 123 120 117 114 114 113 113 113 114 117 117 116 113 107 97 93 88 84 85 92 79 90 79 96 109 111 110 107 106 103 97
144 164 157 153 148 146 147 144 142 138 135 133 129 128 126 124 120 118 117 119 123 126 126 125 120 107 95 92 95 99 99 85 62 64 108 127 121 122 119 122 119 112 102
145 158 159 154 150 150 149 147 144 141 139 138 135 134 132 131 129 126 126 126 127 128 127 127 127 115 111 108 108 102 88 69 27 321 169 173 136 139 127 122 118 119 116
143 149 163 158 151 151 152 149 146 144 143 143 140 138 137 135 134 135 134 132 129 127 126 127 123 119 121 124 117 99 83 41 10 30 135 146 185 142 144 134 128 125 120
139 149 165 162 154 153 154 151 147 146 146 146 145 143 141 138 137 139 138 133 129 126 130 135 138 134 132 132 111 88 59 36 14 75 138 162 184 156 149 144 139 137 136
135 145 162 166 156 153 153 150 147 148 149 148 147 148 145 143 143 143 141 138 136 136 139 143 149 149 150 153 126 84 59 13 2 154 167 166 178 163 156 153 150 151 152
128 146 162 166 156 154 158 153 150 150 150 150 151 149 148 149 150 150 150 149 147 147 149 153 159 164 169 192 222 238 65 6 31 124 142 173 178 168 164 164 162 161 164
141 157 162 164 167 165 157 161 153 153 152 152 154 153 149 154 158 156 158 160 160 159 159 161 166 172 189 237 271 284 61 38 340 131 150 172 183 183 178 174 171 170 175
169 168 166 167 167 167 166 164 154 157 157 159 160 162 156 154 159 160 164 166 169 168 169 171 175 179 187 227 287 304 339 138 236 204 184 176 197 197 188 182 181 181 183
171 168 169 167 168 169 164 166 164 159 158 159 161 162 159 158 162 160 155 170 163 173 168 174 179 190 198 207 253 274 274 214 216 195 186 187 198 194 188 189 192 193 194
168 176 168 164 165 165 160 171 166 164 164 168 173 166 165 165 174 170 173 170 169 166 174 174 187 200 215 221 228 252 254 258 201 208 192 193 203 197 187 186 187 192 196
166 170 180 165 170 159 161 167 168 172 174 176 174 177 172 168 178 169 173 165 174 168 177 185 191 202 220 225 233 235 254 245 230 192 178 193 203 202 187 176 171 168 168
170 174 173 179 175 162 170 172 175 172 177 173 179 186 180 175 168 177 177 180 180 184 185 185 195 201 215 209 233 233 246 244 195 187 184 191 197 199 184 168 161 160 158
181 174 176 178 176 176 176 175 175 180 173 181 184 185 186 177 176 173 178 186 192 190 179 187 206 207 225 219 231 229 229 229 199 188 185 187 195 206 177 179 175 172 172
175 181 180 180 181 179 179 179 181 181 178 187 184 185 189 189 187 180 185 192 187 179 185 192 190 204 219 213 229 232 227 227 232 182 185 176 190 194 200 187 186 182 176
183 179 185 186 185 183 177 178 182 181 186 186 189 186 196 195 191 188 196 194 180 184 192 192 197 187 196 214 224 235 236 232 230 183 194 192 195 194 192 203 191 185 180
188 185 184 184 187 186 178 173 181 186 193 190 190 195 192 201 195 195 194 183 186 189 196 196 197 200 190 203 212 229 232 231 218 194 201 192 202 192 188 188 196 185 176
191 186 187 181 190 182 181 182 187 196 190 197 196 194 195 197 202 197 202 196 192 197 202 200 200 197 217 179 131 290 276 243 237 203 192 201 205 201 194 183 176 167 171
193 192 189 190 181 187 187 193 195 191 190 190 195 198 199 199 198 203 203 204 205 203 192 197 198 189 209 179 172 100 249 301 242 220 210 208 211 182 184 176 179 168 154
190 191 193 190 185 185 188 187 193 141 158 170 197 200 198 200 202 201 208 205 205 205 207 201 199 202 203 207 200 153 173 231 266 193 224 216 196 188 182 175 183 165 163
197 197 193 191 187 189 184 180 190 189 188 205 199 193 185 191 199 205 206 208 209 207 211 210 201 206 195 201 214 228 194 156 197 294 286 245 205 195 190 180 170 166 158
176 196 190 199 192 190 184 186 186 193 204 206 198 195 190 189 196 203 207 206 212 214 219 214 208 208 210 209 211 148 204 205 121 137 248 276 332 227 185 170 163 158 156
140 178 194 192 205 188 186 187 188 191 199 200 199 195 203 192 195 201 205 210 211 213 218 214 209 203 210 215 212 210 211 213 216 157 168 270 248 280 188 182 169 166 161